Weather History for Aurora, CO

Change the Weather History Date:

Friday, February 1, 2013

  Actual Average Record
Temperature  
Mean Temperature 36 °F -  
Max Temperature 48 °F 41 °F 69 °F (2003)
Min Temperature 24 °F 20 °F -13 °F (2011)
Degree Days  
Heating Degree Days 29    
Moisture  
Dew Point 16 °F    
Average Humidity 48    
Maximum Humidity 64    
Minimum Humidity 25    
Precipitation  
Precipitation 0.00 in - - ()
Sea Level Pressure  
Sea Level Pressure 30.09 in    
Wind  
Wind Speed 9 mph (WSW)    
Max Wind Speed 28 mph    
Max Gust Speed 37 mph    
Visibility 10 miles    
Events      
Averages and records for this station are not official NWS values.
T = Trace of Precipitation, MM = Missing Value Source: NWS Daily Summary

Daily Weather History Graph

Daily Weather History Graph

Search for Another Location

Airport:

Trip Planner

Search our weather history database for the weather conditions in past years. The results will help you decide how hot, cold, wet, or windy it might be!

Date:

Astronomy

Feb. 01, 2013 Rise Set
Actual Time 7:06 AM MST 5:19 PM MST
Civil Twilight 6:38 AM MST 5:47 PM MST
Nautical Twilight 6:05 AM MST 6:19 PM MST
Astronomical Twilight 5:34 AM MST 6:51 PM MST
Moon 11:28 PM MST (2/1) 9:42 AM MST (2/1)
Length of Visible Light 11h 09m
Length of Day
10h 12m
Waning Gibbous, 69% of the Moon is Illuminated
Feb 1
Waning Gibbous
Feb 3
Last Quarter
Feb 10
New
Feb 17
First Quarter
Feb 25
Full

Hourly Weather History & Observations

Time (MST) Temp. Windchill Dew Point Humidity Pressure Visibility Wind Dir Wind Speed Gust Speed Precip Events Conditions
12:55 AM 32.0 °F 26.4 °F 15.8 °F 51% 30.06 in 25.0 mi SW 5.8 mph - N/A   Partly Cloudy
1:55 AM 26.6 °F 18.2 °F 15.8 °F 64% 30.08 in 25.0 mi South 8.1 mph - N/A   Partly Cloudy
2:55 AM 28.4 °F 19.1 °F 17.6 °F 64% 30.07 in 25.0 mi South 10.4 mph - N/A   Partly Cloudy
3:55 AM 28.4 °F - 15.8 °F 59% 30.07 in 25.0 mi SSW 2.3 mph - N/A   Partly Cloudy
4:55 AM 28.4 °F 24.6 °F 14.0 °F 55% 30.06 in 25.0 mi South 3.5 mph - N/A   Partly Cloudy
5:55 AM 26.6 °F - 14.0 °F 59% 30.08 in 25.0 mi South 2.3 mph - N/A   Partly Cloudy
6:55 AM 24.8 °F 16.1 °F 14.0 °F 64% 30.10 in 70.0 mi South 8.1 mph - N/A   Scattered Clouds
7:55 AM 28.4 °F 21.2 °F 15.8 °F 59% 30.09 in 70.0 mi South 6.9 mph - N/A   Scattered Clouds
8:55 AM 37.4 °F 34.9 °F 19.4 °F 48% 30.07 in 70.0 mi WSW 3.5 mph - N/A   Partly Cloudy
9:55 AM 41.0 °F 36.4 °F 17.6 °F 39% 30.06 in 70.0 mi NNW 6.9 mph - N/A   Partly Cloudy
10:55 AM 44.6 °F 39.7 °F 15.8 °F 31% 30.05 in 70.0 mi NW 9.2 mph - N/A   Partly Cloudy
11:55 AM 46.4 °F 39.8 °F 15.8 °F 29% 30.03 in 70.0 mi WNW 16.1 mph - N/A   Partly Cloudy
12:55 PM 48.2 °F - 14.0 °F 25% 29.98 in 70.0 mi WNW 23.0 mph 34.5 mph N/A   Partly Cloudy
1:55 PM 48.2 °F - 14.0 °F 25% 30.00 in 70.0 mi WNW 26.5 mph 33.4 mph N/A   Scattered Clouds
2:55 PM 46.4 °F 38.7 °F 17.6 °F 32% 30.03 in 70.0 mi WNW 20.7 mph 36.8 mph N/A   Scattered Clouds
3:55 PM 44.6 °F 35.1 °F 15.8 °F 31% 30.05 in 70.0 mi West 27.6 mph 34.5 mph N/A   Scattered Clouds
4:55 PM 42.8 °F 34.5 °F 15.8 °F 34% 30.08 in 70.0 mi West 18.4 mph 25.3 mph N/A   Scattered Clouds
5:55 PM 39.2 °F 31.2 °F 15.8 °F 39% 30.13 in 25.0 mi WNW 13.8 mph - N/A   Scattered Clouds
6:55 PM 35.6 °F 30.7 °F 14.0 °F 41% 30.17 in 25.0 mi West 5.8 mph - N/A   Scattered Clouds
7:55 PM 33.8 °F 25.8 °F 17.6 °F 52% 30.18 in 10.0 mi North 10.4 mph - N/A   Partly Cloudy
8:55 PM 32.0 °F 26.4 °F 19.4 °F 60% 30.18 in 10.0 mi North 5.8 mph - N/A   Partly Cloudy
9:55 PM 32.0 °F 25.6 °F 19.4 °F 60% 30.19 in 10.0 mi East 6.9 mph - N/A   Partly Cloudy
10:55 PM 26.6 °F 18.2 °F 15.8 °F 64% 30.20 in 10.0 mi SE 8.1 mph - N/A   Partly Cloudy
11:55 PM 26.6 °F 17.5 °F 15.8 °F 64% 30.20 in 10.0 mi South 9.2 mph - N/A   Partly Cloudy